• Em Portugal
  • Lista de países
  • Para 7 dias
  • Temperatura da água
  • Mapas de satélite
  • Mapa do tempo
  • Widgets de tempo
  • user-avatar
    Iniciar Sessão

    Previsão horária em Gobabis

    Hoje, 19 Junho, Terça-feira

    Tempo Temperatura Precipitação Vento Pressão Humidade
    00:00 +13°C° 0 mm 3 m/s 641 mmHg 21%
    01:00 +12°C° 0 mm 3 m/s 641 mmHg 23%
    02:00 +11°C° 0 mm 3 m/s 641 mmHg 25%
    03:00 +11°C° 0 mm 3 m/s 640 mmHg 27%
    04:00 +10°C° 0 mm 3 m/s 640 mmHg 29%
    05:00 +12°C° 0 mm 2 m/s 640 mmHg 28%
    06:00 +12°C° 0 mm 2 m/s 641 mmHg 28%
    07:00 +12°C° 0 mm 2 m/s 641 mmHg 27%
    08:00 +15°C° 0 mm 2 m/s 642 mmHg 23%
    09:00 +19°C° 0 mm 2 m/s 643 mmHg 18%
    10:00 +22°C° 0 mm 3 m/s 644 mmHg 14%
    11:00 +25°C° 0 mm 3 m/s 644 mmHg 12%
    12:00 +26°C° 0 mm 3 m/s 644 mmHg 11%
    13:00 +27°C° 0 mm 3 m/s 644 mmHg 10%
    14:00 +27°C° 0 mm 3 m/s 643 mmHg 10%
    15:00 +27°C° 0 mm 3 m/s 643 mmHg 10%
    16:00 +27°C° 0 mm 3 m/s 643 mmHg 10%
    17:00 +24°C° 0 mm 3 m/s 642 mmHg 13%
    18:00 +19°C° 0 mm 2 m/s 642 mmHg 17%
    19:00 +16°C° 0 mm 2 m/s 641 mmHg 21%
    20:00 +15°C° 0 mm 2 m/s 641 mmHg 21%
    21:00 +14°C° 0 mm 2 m/s 641 mmHg 22%
    22:00 +14°C° 0 mm 2 m/s 641 mmHg 23%
    23:00 +13°C° 0 mm 2 m/s 641 mmHg 24%

    Amanhã, 20 Junho, Quarta-feira

    Tempo Temperatura Precipitação Vento Pressão Humidade
    00:00 +13°C° 0 mm 2 m/s 641 mmHg 25%
    01:00 +12°C° 0 mm 3 m/s 641 mmHg 25%
    02:00 +12°C° 0 mm 2 m/s 641 mmHg 28%
    03:00 +10°C° 0 mm 2 m/s 640 mmHg 30%
    04:00 +9°C° 0 mm 2 m/s 640 mmHg 33%
    05:00 +10°C° 0 mm 1 m/s 640 mmHg 32%
    06:00 +11°C° 0 mm 1 m/s 641 mmHg 30%
    07:00 +11°C° 0 mm 1 m/s 641 mmHg 29%
    08:00 +15°C° 0 mm 1 m/s 643 mmHg 24%
    09:00 +18°C° 0 mm 2 m/s 644 mmHg 19%
    10:00 +23°C° 0 mm 2 m/s 646 mmHg 14%
    11:00 +24°C° 0 mm 2 m/s 645 mmHg 13%
    12:00 +25°C° 0 mm 2 m/s 645 mmHg 12%
    13:00 +27°C° 0 mm 3 m/s 645 mmHg 11%
    14:00 +27°C° 0 mm 3 m/s 644 mmHg 10%
    15:00 +27°C° 0 mm 3 m/s 644 mmHg 10%
    16:00 +27°C° 0 mm 3 m/s 644 mmHg 10%
    17:00 +24°C° 0 mm 3 m/s 643 mmHg 13%
    18:00 +20°C° 0 mm 3 m/s 643 mmHg 15%
    19:00 +17°C° 0 mm 3 m/s 642 mmHg 18%
    20:00 +17°C° 0 mm 4 m/s 643 mmHg 19%
    21:00 +15°C° 0 mm 4 m/s 643 mmHg 20%
    22:00 +14°C° 0 mm 4 m/s 643 mmHg 22%
    23:00 +14°C° 0 mm 4 m/s 643 mmHg 23%

    Depois de amanhã, 21 Junho, Quinta-feira

    Tempo Temperatura Precipitação Vento Pressão Humidade
    00:00 +13°C° 0 mm 4 m/s 643 mmHg 24%
    01:00 +13°C° 0 mm 4 m/s 643 mmHg 25%
    02:00 +12°C° 0 mm 4 m/s 643 mmHg 26%
    03:00 +12°C° 0 mm 3 m/s 643 mmHg 27%
    04:00 +12°C° 0 mm 3 m/s 643 mmHg 27%
    05:00 +12°C° 0 mm 3 m/s 643 mmHg 27%
    06:00 +12°C° 0 mm 3 m/s 643 mmHg 27%
    07:00 +12°C° 0 mm 3 m/s 644 mmHg 27%
    08:00 +16°C° 0 mm 3 m/s 645 mmHg 23%
    09:00 +20°C° 0 mm 4 m/s 646 mmHg 19%
    10:00 +23°C° 0 mm 4 m/s 647 mmHg 14%
    11:00 +25°C° 0 mm 3 m/s 647 mmHg 13%
    12:00 +26°C° 0 mm 3 m/s 647 mmHg 12%
    13:00 +27°C° 0 mm 2 m/s 646 mmHg 11%
    14:00 +26°C° 0 mm 2 m/s 646 mmHg 11%
    15:00 +26°C° 0 mm 1 m/s 646 mmHg 11%
    16:00 +26°C° 0 mm 1 m/s 645 mmHg 11%
    17:00 +24°C° 0 mm 2 m/s 645 mmHg 13%
    18:00 +20°C° 0 mm 2 m/s 644 mmHg 16%
    19:00 +17°C° 0 mm 3 m/s 644 mmHg 18%
    20:00 +16°C° 0 mm 3 m/s 644 mmHg 20%
    21:00 +16°C° 0 mm 3 m/s 644 mmHg 22%
    22:00 +14°C° 0 mm 3 m/s 644 mmHg 23%
    23:00 +13°C° 0 mm 3 m/s 644 mmHg 25%

    22 Junho, Sexta-feira

    Tempo Temperatura Precipitação Vento Pressão Humidade
    00:00 +13°C° 0 mm 3 m/s 644 mmHg 27%
    01:00 +13°C° 0 mm 2 m/s 643 mmHg 28%
    02:00 +13°C° 0 mm 2 m/s 643 mmHg 29%
    03:00 +12°C° 0 mm 2 m/s 643 mmHg 30%
    04:00 +12°C° 0 mm 2 m/s 643 mmHg 30%
    05:00 +12°C° 0 mm 2 m/s 643 mmHg 30%
    06:00 +12°C° 0 mm 2 m/s 644 mmHg 30%
    07:00 +12°C° 0 mm 2 m/s 644 mmHg 30%
    08:00 +16°C° 0 mm 2 m/s 645 mmHg 26%
    09:00 +19°C° 0 mm 3 m/s 646 mmHg 21%
    10:00 +24°C° 0 mm 3 m/s 647 mmHg 16%
    11:00 +24°C° 0 mm 3 m/s 647 mmHg 14%
    12:00 +25°C° 0 mm 3 m/s 646 mmHg 13%
    13:00 +26°C° 0 mm 3 m/s 646 mmHg 12%
    14:00 +26°C° 0 mm 2 m/s 646 mmHg 12%
    15:00 +26°C° 0 mm 2 m/s 645 mmHg 12%
    16:00 +26°C° 0 mm 2 m/s 645 mmHg 12%
    17:00 +23°C° 0 mm 2 m/s 645 mmHg 15%
    18:00 +20°C° 0 mm 3 m/s 644 mmHg 18%
    19:00 +17°C° 0 mm 3 m/s 644 mmHg 20%
    20:00 +16°C° 0 mm 3 m/s 644 mmHg 22%
    21:00 +16°C° 0 mm 3 m/s 644 mmHg 24%
    22:00 +14°C° 0 mm 3 m/s 644 mmHg 25%
    23:00 +13°C° 0 mm 3 m/s 644 mmHg 27%

    23 Junho, Sábado

    Tempo Temperatura Precipitação Vento Pressão Humidade
    00:00 +13°C° 0 mm 3 m/s 644 mmHg 29%
    01:00 +12°C° 0 mm 3 m/s 643 mmHg 31%
    02:00 +12°C° 0 mm 3 m/s 643 mmHg 33%
    03:00 +11°C° 0 mm 3 m/s 643 mmHg 35%
    04:00 +11°C° 0 mm 3 m/s 643 mmHg 37%
    05:00 +11°C° 0 mm 3 m/s 643 mmHg 37%
    06:00 +11°C° 0 mm 3 m/s 644 mmHg 38%
    07:00 +12°C° 0 mm 3 m/s 644 mmHg 38%
    08:00 +15°C° 0 mm 4 m/s 645 mmHg 32%
    09:00 +19°C° 0 mm 4 m/s 646 mmHg 26%
    10:00 +23°C° 0 mm 5 m/s 647 mmHg 20%
    11:00 +23°C° 0 mm 4 m/s 646 mmHg 18%
    12:00 +25°C° 0 mm 2 m/s 646 mmHg 16%
    13:00 +26°C° 0 mm 1 m/s 645 mmHg 14%
    14:00 +26°C° 0 mm 1 m/s 645 mmHg 14%
    15:00 +26°C° 0 mm 1 m/s 645 mmHg 13%
    16:00 +26°C° 0 mm 1 m/s 644 mmHg 13%
    17:00 +23°C° 0 mm 2 m/s 644 mmHg 16%
    18:00 +19°C° 0 mm 2 m/s 644 mmHg 19%
    19:00 +17°C° 0 mm 3 m/s 643 mmHg 22%
    20:00 +16°C° 0 mm 3 m/s 643 mmHg 24%
    21:00 +14°C° 0 mm 3 m/s 643 mmHg 25%
    22:00 +14°C° 0 mm 3 m/s 643 mmHg 26%
    23:00 +13°C° 0 mm 3 m/s 643 mmHg 27%

    24 Junho, Domingo

    Tempo Temperatura Precipitação Vento Pressão Humidade
    00:00 +12°C° 0 mm 3 m/s 642 mmHg 27%
    01:00 +12°C° 0 mm 3 m/s 642 mmHg 28%
    02:00 +11°C° 0 mm 3 m/s 642 mmHg 28%
    03:00 +11°C° 0 mm 3 m/s 642 mmHg 29%
    04:00 +11°C° 0 mm 3 m/s 642 mmHg 29%
    05:00 +11°C° 0 mm 3 m/s 642 mmHg 29%
    06:00 +11°C° 0 mm 3 m/s 643 mmHg 29%
    07:00 +11°C° 0 mm 3 m/s 643 mmHg 28%
    08:00 +15°C° 0 mm 4 m/s 644 mmHg 24%
    09:00 +19°C° 0 mm 5 m/s 645 mmHg 20%
    10:00 +22°C° 0 mm 5 m/s 646 mmHg 16%
    11:00 +23°C° 0 mm 5 m/s 646 mmHg 15%
    12:00 +25°C° 0 mm 4 m/s 645 mmHg 14%
    13:00 +25°C° 0 mm 4 m/s 645 mmHg 13%
    14:00 +25°C° 0 mm 4 m/s 644 mmHg 13%
    15:00 +25°C° 0 mm 4 m/s 644 mmHg 12%
    16:00 +25°C° 0 mm 4 m/s 644 mmHg 12%
    17:00 +22°C° 0 mm 4 m/s 644 mmHg 15%
    18:00 +19°C° 0 mm 4 m/s 643 mmHg 18%
    19:00 +15°C° 0 mm 4 m/s 643 mmHg 21%
    20:00 +15°C° 0 mm 4 m/s 643 mmHg 23%
    21:00 +14°C° 0 mm 4 m/s 643 mmHg 25%
    22:00 +13°C° 0 mm 4 m/s 643 mmHg 27%
    23:00 +13°C° 0 mm 4 m/s 643 mmHg 29%
    Mostrar mais